Location: Hamayl? Da??
(36.7028°N, 30.1716°E)
Time: 11:48:50
(UTC+00:00)

Cosmos 1812 - Pass Details

Date: 04 August 2024
Orbit: 459 x 461 km, 82.5° (Epoch: 11 September)

Event Time Altitude Azimuth Distance (km) Brightness Sun altitude
Rises 18:34:53 0° 349° (N) 2,494 6.9 -16.9°
Reaches altitude 10° 18:36:58 10° 347° (NNW) 1,617 5.9 -17.3°
Maximum altitude 18:40:28 64° 265° (W) 516 2.8 -17.8°
Enters shadow 18:42:11 27° 191° (SSW) 911 3.7 -18.1°
